Time,TemperatureF,DewpointF,PressureIn,WindDirection,WindDirectionDegrees,WindSpeedMPH,WindSpeedGustMPH,Humidity,HourlyPrecipIn,Conditions,Clouds,dailyrainin,SoftwareType,DateUTC
2013-01-25 00:00:00,14.5,6.5,30.44,ESE,118,2.0,6.0,70,0.00,OVC,,0.00,WeatherDisplay:10.37,2013-01-25 05:00:00,
2013-01-25 00:15:00,14.5,6.2,30.43,ESE,112,2.0,6.0,69,0.00,OVC,,0.00,WeatherDisplay:10.37,2013-01-25 05:15:00,
2013-01-25 00:30:00,14.7,6.4,30.43,SE,143,2.0,5.0,69,0.00,OVC,,0.00,WeatherDisplay:10.37,2013-01-25 05:30:00,
2013-01-25 00:45:00,14.9,6.6,30.43,SSE,149,2.0,4.0,69,0.00,OVC,,0.00,WeatherDisplay:10.37,2013-01-25 05:45:00,
2013-01-25 01:00:00,14.9,6.6,30.44,SSE,167,1.0,3.0,69,0.00,OVC,,0.00,WeatherDisplay:10.37,2013-01-25 06:00:00,
2013-01-25 01:15:00,14.9,6.6,30.43,SE,126,1.0,3.0,69,0.00,OVC,,0.00,WeatherDisplay:10.37,2013-01-25 06:15:00,
2013-01-25 01:30:00,15.3,6.9,30.43,SE,124,2.0,3.0,69,0.00,OVC,,0.00,WeatherDisplay:10.37,2013-01-25 06:30:00,
2013-01-25 01:45:00,14.9,6.6,30.41,East,91,2.0,3.0,69,0.00,OVC,,0.00,WeatherDisplay:10.37,2013-01-25 06:45:00,
2013-01-25 02:00:00,14.9,6.6,30.40,East,86,2.0,5.0,69,0.00,OVC,,0.00,WeatherDisplay:10.37,2013-01-25 07:00:00,
2013-01-25 02:15:00,14.9,6.6,30.38,SE,140,3.0,6.0,69,0.00,OVC,,0.00,WeatherDisplay:10.37,2013-01-25 07:15:00,
2013-01-25 02:30:00,14.9,6.6,30.38,SSE,158,3.0,7.0,69,0.00,OVC,,0.00,WeatherDisplay:10.37,2013-01-25 07:30:00,
2013-01-25 02:45:00,14.9,6.6,30.37,SSE,149,3.0,6.0,69,0.00,OVC,,0.00,WeatherDisplay:10.37,2013-01-25 07:45:00,
2013-01-25 03:00:00,14.9,6.6,30.37,SE,127,3.0,6.0,69,0.00,OVC,,0.00,WeatherDisplay:10.37,2013-01-25 08:00:00,
2013-01-25 03:15:00,14.9,6.9,30.37,SSE,148,3.0,7.0,70,0.00,OVC,,0.00,WeatherDisplay:10.37,2013-01-25 08:15:00,
2013-01-25 03:30:00,14.9,7.5,30.37,SSE,147,3.0,7.0,72,0.00,OVC,,0.00,WeatherDisplay:10.37,2013-01-25 08:30:00,
2013-01-25 03:45:00,14.7,7.9,30.36,SE,126,3.0,6.0,74,0.00,OVC,,0.00,WeatherDisplay:10.37,2013-01-25 08:45:00,
2013-01-25 04:00:00,14.7,8.2,30.34,SE,126,3.0,6.0,75,0.00,OVC,,0.00,WeatherDisplay:10.37,2013-01-25 09:00:00,
2013-01-25 04:15:00,14.5,8.4,30.32,ESE,119,2.0,6.0,76,0.00,-SN,,0.00,WeatherDisplay:10.37,2013-01-25 09:15:00,
2013-01-25 04:30:00,14.5,8.4,30.32,ESE,108,2.0,6.0,76,0.00,OVC,,0.00,WeatherDisplay:10.37,2013-01-25 09:30:00,
2013-01-25 04:45:00,14.5,8.4,30.30,East,86,2.0,5.0,76,0.00,OVC,,0.00,WeatherDisplay:10.37,2013-01-25 09:45:00,
2013-01-25 05:00:00,14.5,8.4,30.28,East,87,2.0,5.0,76,0.00,OVC,,0.00,WeatherDisplay:10.37,2013-01-25 10:00:00,
2013-01-25 05:15:00,14.5,8.4,30.26,East,91,2.0,5.0,76,0.00,OVC,,0.00,WeatherDisplay:10.37,2013-01-25 10:15:00,
2013-01-25 05:30:00,14.7,8.5,30.26,East,86,2.0,5.0,76,0.00,OVC,,0.00,WeatherDisplay:10.37,2013-01-25 10:30:00,
2013-01-25 05:45:00,14.9,8.7,30.25,ENE,77,2.0,6.0,76,0.00,OVC,,0.00,WeatherDisplay:10.37,2013-01-25 10:45:00,
2013-01-25 06:00:00,15.3,8.8,30.24,East,99,2.0,5.0,75,0.00,OVC,,0.00,WeatherDisplay:10.37,2013-01-25 11:00:00,
2013-01-25 06:15:00,15.3,8.8,30.23,ENE,74,2.0,3.0,75,0.00,OVC,,0.00,WeatherDisplay:10.37,2013-01-25 11:15:00,
2013-01-25 06:30:00,15.3,8.8,30.23,East,86,2.0,3.0,75,0.00,OVC,,0.00,WeatherDisplay:10.37,2013-01-25 11:30:00,
2013-01-25 06:45:00,15.4,8.6,30.21,ENE,76,2.0,5.0,74,0.00,OVC,,0.00,WeatherDisplay:10.37,2013-01-25 11:45:00,
2013-01-25 07:00:00,15.6,8.8,30.21,ESE,110,2.0,5.0,74,0.00,OVC,,0.00,WeatherDisplay:10.37,2013-01-25 12:00:00,
2013-01-25 07:15:00,15.8,8.7,30.20,ESE,110,2.0,8.0,73,0.00,OVC,,0.00,WeatherDisplay:10.37,2013-01-25 12:15:00,
2013-01-25 07:30:00,16.0,8.8,30.20,East,83,2.0,8.0,73,0.00,OVC,,0.00,WeatherDisplay:10.37,2013-01-25 12:30:00,
2013-01-25 07:45:00,16.0,8.8,30.19,ESE,110,2.0,4.0,73,0.00,OVC,,0.00,WeatherDisplay:10.37,2013-01-25 12:45:00,
2013-01-25 08:00:00,16.0,9.2,30.19,SE,128,3.0,6.0,74,0.00,OVC,,0.00,WeatherDisplay:10.37,2013-01-25 13:00:00,
2013-01-25 08:15:00,16.2,9.3,30.18,SE,124,2.0,5.0,74,0.00,OVC,,0.00,WeatherDisplay:10.37,2013-01-25 13:15:00,
2013-01-25 08:30:00,16.2,9.9,30.18,ESE,121,2.0,4.0,76,0.00,OVC,,0.00,WeatherDisplay:10.37,2013-01-25 13:30:00,
2013-01-25 08:45:00,16.3,10.7,30.17,ESE,111,2.0,5.0,78,0.00,OVC,,0.00,WeatherDisplay:10.37,2013-01-25 13:45:00,
2013-01-25 09:00:00,16.0,10.7,30.16,ESE,114,3.0,5.0,79,0.00,OVC,,0.00,WeatherDisplay:10.37,2013-01-25 14:00:00,
2013-01-25 09:15:00,16.2,11.1,30.15,SE,126,3.0,5.0,80,0.00,OVC,,0.00,WeatherDisplay:10.37,2013-01-25 14:15:00,
2013-01-25 09:30:00,16.7,11.6,30.15,ESE,123,3.0,7.0,80,0.00,OVC,,0.00,WeatherDisplay:10.37,2013-01-25 14:30:00,
2013-01-25 09:45:00,16.9,12.1,30.14,SE,146,3.0,7.0,81,0.00,OVC,,0.00,WeatherDisplay:10.37,2013-01-25 14:45:00,
2013-01-25 10:00:00,17.4,12.6,30.13,SSE,150,3.0,7.0,81,0.00,OVC,,0.00,WeatherDisplay:10.37,2013-01-25 15:00:00,
2013-01-25 10:15:00,17.8,12.9,30.14,SE,140,3.0,6.0,81,0.00,-SN,,0.00,WeatherDisplay:10.37,2013-01-25 15:15:00,
2013-01-25 10:30:00,18.1,13.3,30.14,SE,131,3.0,7.0,81,0.00,-SN,,0.00,WeatherDisplay:10.37,2013-01-25 15:30:00,
2013-01-25 10:45:00,19.2,14.1,30.13,SSE,148,5.0,7.0,80,0.00,-SN,,0.00,WeatherDisplay:10.37,2013-01-25 15:45:00,
2013-01-25 11:00:00,19.6,14.4,30.12,SSE,154,7.0,10.0,80,0.00,-SN,,0.00,WeatherDisplay:10.37,2013-01-25 16:00:00,
2013-01-25 11:15:00,20.3,14.8,30.10,SSE,159,7.0,12.0,79,0.00,-SN,,0.00,WeatherDisplay:10.37,2013-01-25 16:15:00,
2013-01-25 11:30:00,20.6,15.2,30.10,SSE,165,6.0,8.0,79,0.00,-SN,,0.00,WeatherDisplay:10.37,2013-01-25 16:30:00,
2013-01-25 11:45:00,21.4,15.6,30.09,South,175,6.0,11.0,78,0.00,-SN,,0.00,WeatherDisplay:10.37,2013-01-25 16:45:00,
2013-01-25 12:00:00,21.7,15.6,30.08,SSE,160,7.0,15.0,77,0.00,-SN,,0.00,WeatherDisplay:10.37,2013-01-25 17:00:00,
2013-01-25 12:15:00,22.5,16.3,30.07,SSW,201,7.0,9.0,77,0.00,-SN,,0.00,WeatherDisplay:10.37,2013-01-25 17:15:00,
2013-01-25 12:30:00,22.5,16.3,30.07,SSE,148,6.0,13.0,77,0.00,OVC,,0.00,WeatherDisplay:10.37,2013-01-25 17:30:00,
2013-01-25 12:45:00,22.5,16.0,30.06,SSE,166,8.0,13.0,76,0.00,OVC,,0.00,WeatherDisplay:10.37,2013-01-25 17:45:00,
2013-01-25 13:00:00,22.8,16.0,30.04,SSE,158,8.0,13.0,75,0.00,OVC,,0.00,WeatherDisplay:10.37,2013-01-25 18:00:00,
2013-01-25 13:15:00,22.6,15.6,30.02,SE,146,9.0,14.0,74,0.00,OVC,,0.00,WeatherDisplay:10.37,2013-01-25 18:15:00,
2013-01-25 13:30:00,22.8,15.8,30.02,SSE,157,7.0,14.0,74,0.00,-SN,,0.00,WeatherDisplay:10.37,2013-01-25 18:30:00,
2013-01-25 13:45:00,23.0,16.3,30.01,SSE,168,7.0,13.0,75,0.00,-SN,,0.00,WeatherDisplay:10.37,2013-01-25 18:45:00,
2013-01-25 14:00:00,23.2,16.1,30.00,SSE,159,8.0,11.0,74,0.00,-SN,,0.00,WeatherDisplay:10.37,2013-01-25 19:00:00,
2013-01-25 14:15:00,23.2,16.1,29.99,SSE,160,8.0,12.0,74,0.00,-SN,,0.00,WeatherDisplay:10.37,2013-01-25 19:15:00,
2013-01-25 14:30:00,23.0,15.9,29.99,South,173,6.0,10.0,74,0.00,-SN,,0.00,WeatherDisplay:10.37,2013-01-25 19:30:00,
2013-01-25 15:45:00,23.4,16.6,29.97,South,169,6.0,12.0,75,0.00,-SN,,0.00,WeatherDisplay:10.37,2013-01-25 20:45:00,
2013-01-25 16:00:00,23.5,16.8,29.95,SE,136,7.0,9.0,75,0.00,-SN,,0.00,WeatherDisplay:10.37,2013-01-25 21:00:00,
2013-01-25 16:15:00,23.9,17.4,29.96,South,172,5.0,8.0,76,0.00,-SN,,0.00,WeatherDisplay:10.37,2013-01-25 21:15:00,
2013-01-25 16:30:00,23.5,17.1,29.96,SSE,156,7.0,8.0,76,0.00,-SN,,0.00,WeatherDisplay:10.37,2013-01-25 21:30:00,
2013-01-25 16:45:00,23.4,17.5,29.96,South,178,5.0,13.0,78,0.00,-SN,,0.00,WeatherDisplay:10.37,2013-01-25 21:45:00,
2013-01-25 17:00:00,23.4,17.5,29.97,SE,142,5.0,7.0,78,0.00,-SN,,0.00,WeatherDisplay:10.37,2013-01-25 22:00:00,
2013-01-25 17:15:00,23.2,17.6,29.97,SE,140,3.0,6.0,79,0.00,-SN,,0.00,WeatherDisplay:10.37,2013-01-25 22:15:00,
2013-01-25 17:30:00,23.2,17.9,29.97,South,171,3.0,8.0,80,0.00,-SN,,0.00,WeatherDisplay:10.37,2013-01-25 22:30:00,
2013-01-25 17:45:00,23.2,18.2,29.97,South,173,5.0,8.0,81,0.00,-SN,,0.00,WeatherDisplay:10.37,2013-01-25 22:45:00,
2013-01-25 18:00:00,22.9,18.2,29.97,SSE,159,3.0,6.0,82,0.00,-SN,,0.00,WeatherDisplay:10.37,2013-01-25 23:00:00,
2013-01-25 18:15:00,22.8,18.4,29.97,SSE,162,3.0,6.0,83,0.00,-SN,,0.00,WeatherDisplay:10.37,2013-01-25 23:15:00,
2013-01-25 18:30:00,22.8,18.4,29.97,SSE,158,3.0,6.0,83,0.00,-SN,,0.00,WeatherDisplay:10.37,2013-01-25 23:30:00,
2013-01-25 18:45:00,22.6,18.3,29.98,South,171,3.0,5.0,83,0.00,-SN,,0.00,WeatherDisplay:10.37,2013-01-25 23:45:00,
2013-01-25 19:00:00,22.6,18.5,29.97,South,180,3.0,6.0,84,0.00,-SN,,0.00,WeatherDisplay:10.37,2013-01-26 00:00:00,
2013-01-25 19:15:00,22.6,18.5,29.98,SSW,209,5.0,8.0,84,0.00,-SN,,0.00,WeatherDisplay:10.37,2013-01-26 00:15:00,
2013-01-25 19:30:00,22.6,18.8,29.98,South,169,2.0,8.0,85,0.00,-SN,,0.00,WeatherDisplay:10.37,2013-01-26 00:30:00,
2013-01-25 19:45:00,22.8,19.0,29.99,SSE,160,2.0,5.0,85,0.00,-SN,,0.00,WeatherDisplay:10.37,2013-01-26 00:45:00,
2013-01-25 20:00:00,22.8,19.0,29.99,SSE,166,2.0,5.0,85,0.00,-SN,,0.00,WeatherDisplay:10.37,2013-01-26 01:00:00,
2013-01-25 20:15:00,22.8,19.0,29.99,South,178,2.0,4.0,85,0.00,-SN,,0.00,WeatherDisplay:10.37,2013-01-26 01:15:00,
2013-01-25 20:30:00,22.8,19.0,29.99,WSW,246,1.0,3.0,85,0.00,-SN,,0.00,WeatherDisplay:10.37,2013-01-26 01:30:00,
2013-01-25 20:45:00,22.8,19.0,30.00,East,96,0.0,1.0,85,0.00,-SN,,0.00,WeatherDisplay:10.37,2013-01-26 01:45:00,
2013-01-25 21:00:00,22.6,18.8,30.00,NE,36,0.0,0.0,85,0.00,-SN,,0.00,WeatherDisplay:10.37,2013-01-26 02:00:00,
2013-01-25 21:15:00,22.6,18.8,30.00,NE,44,0.0,0.0,85,0.00,-SN,,0.00,WeatherDisplay:10.37,2013-01-26 02:15:00,
2013-01-25 21:30:00,22.5,18.6,30.00,West,266,0.0,0.0,85,0.00,-SN,,0.00,WeatherDisplay:10.37,2013-01-26 02:30:00,
2013-01-25 21:45:00,22.5,18.6,30.00,SW,216,0.0,0.0,85,0.00,-SN,,0.00,WeatherDisplay:10.37,2013-01-26 02:45:00,
2013-01-25 22:00:00,22.4,18.6,30.00,SE,144,0.0,0.0,85,0.00,-SN,,0.00,WeatherDisplay:10.37,2013-01-26 03:00:00,
2013-01-25 22:15:00,22.1,18.6,30.01,SSW,212,0.0,1.0,86,0.00,-SN,,0.00,WeatherDisplay:10.37,2013-01-26 03:15:00,
2013-01-25 22:30:00,22.1,18.6,30.01,WSW,255,0.0,0.0,86,0.00,-SN,,0.00,WeatherDisplay:10.37,2013-01-26 03:30:00,
2013-01-25 22:45:00,22.5,18.9,30.01,NNW,337,0.0,0.0,86,0.00,-SN,,0.00,WeatherDisplay:10.37,2013-01-26 03:45:00,
2013-01-25 23:00:00,22.3,18.8,30.02,West,259,1.0,3.0,86,0.00,-SN,,0.00,WeatherDisplay:10.37,2013-01-26 04:00:00,
2013-01-25 23:15:00,22.1,18.6,30.03,West,275,0.0,2.0,86,0.00,-SN,,0.00,WeatherDisplay:10.37,2013-01-26 04:15:00,
2013-01-25 23:30:00,22.5,18.9,30.03,West,280,1.0,3.0,86,0.00,-SN,,0.00,WeatherDisplay:10.37,2013-01-26 04:30:00,
2013-01-25 23:45:00,22.5,18.9,30.04,West,266,1.0,3.0,86,0.00,-SN,,0.00,WeatherDisplay:10.37,2013-01-26 04:45:00,